Terminal Aerodrome Forecast
Issued by NWS Raleigh/Durham, NC

Home | Current Version | Previous Version | Text Only | Print | Product List | Glossary On
Versions: 1 2 3 4 5 6 7 8 9 10 11 12 13 14 15 16 17 18 19 20 21 22 23 24 25 26 27 28 29 30 31 32 33 34 35 36 37 38
139
FTUS42 KRAH 140535
TAFRDU
TAF
KRDU 140535Z 1406/1506 36006KT P6SM SKC
     FM141300 05008KT P6SM SCT120
     FM142000 12005KT P6SM BKN100
     FM150500 11007KT P6SM OVC045
      TEMPO 1505/1506 6SM -SN=

USA.gov is the U.S. government's official web portal to all federal, state and local government web resources and services.